FW7622 Weather Reports


Display with metric or nautical units.
time (UTC)temp
F
wind
direction
speed
MPH
gust
MPH
rain 1hr
in
rain 24hr
in
rain mn
in
humidity
%
barometer
mb
20260502180535 60 179 1.0 2.0 0.00 0.00 0.00 39 1015.0
20260502170454 57 209 4.0 5.0 0.00 0.00 0.00 42 1015.7
20260502163937 57 210 2.0 2.0 0.00 0.00 0.00 42 1015.7
20260502163433 57 298 3.0 3.0 0.00 0.00 0.00 42 1016.0
20260502162931 57 218 6.0 9.0 0.00 0.00 0.00 40 1016.0
20260502162427 57 215 5.0 7.0 0.00 0.00 0.00 41 1016.0
20260502161925 57 178 2.0 5.0 0.00 0.00 0.00 44 1016.0
20260502161421 57 0 3.0 5.0 0.00 0.00 0.00 40 1016.0
20260502160919 57 148 3.0 5.0 0.00 0.00 0.00 40 1016.3
20260502160417 56 140 3.0 3.0 0.00 0.00 0.00 42 1016.3
20260502151849 56 159 2.0 2.0 0.00 0.00 0.00 43 1016.7
20260502151345 55 177 0.0 1.0 0.00 0.00 0.00 46 1016.7
20260502150843 54 287 3.0 3.0 0.00 0.00 0.00 45 1016.7
20260502150339 55 204 3.0 3.0 0.00 0.00 0.00 44 1016.7
20260502130728 43 162 0.0 0.0 0.00 0.00 0.00 69 1017.0
20260502130225 43 165 0.0 0.0 0.00 0.00 0.00 68 1017.4
20260502123711 34 157 0.0 0.0 0.00 0.00 0.00 80 1017.4
20260502123208 36 157 0.0 0.0 0.00 0.00 0.00 81 1017.4
20260502122704 33 158 0.0 0.0 0.00 0.00 0.00 85 1017.4
20260502122201 32 158 0.0 0.0 0.00 0.00 0.00 90 1017.4
20260502121659 30 158 0.0 0.0 0.00 0.00 0.00 93 1017.4
20260502121157 27 159 0.0 0.0 0.00 0.00 0.00 93 1017.4
20260502120653 26 159 0.0 0.0 0.00 0.00 0.00 94 1017.4
20260502120150 26 159 0.0 0.0 0.00 0.00 0.00 94 1017.4
20260502115648 25 159 0.0 0.0 0.00 0.00 0.00 94 1017.0
20260502115143 25 159 0.0 0.0 0.00 0.00 0.00 95 1017.0
20260502114640 24 158 0.0 0.0 0.00 0.00 0.00 95 1017.0
20260502114138 24 158 0.0 0.0 0.00 0.00 0.00 95 1017.4
20260502113635 24 159 0.0 0.0 0.00 0.00 0.00 96 1017.4
20260502113133 23 159 0.0 0.0 0.00 0.00 0.00 96 1017.4
20260502112630 23 159 0.0 0.0 0.00 0.00 0.00 96 1017.0
20260502112127 23 159 0.0 0.0 0.00 0.00 0.00 95 1017.0
20260502111625 23 159 0.0 0.0 0.00 0.00 0.00 95 1017.0
20260502111122 23 159 0.0 0.0 0.00 0.00 0.00 95 1017.0
20260502110620 23 158 0.0 0.0 0.00 0.00 0.00 95 1017.0
20260502110117 23 158 0.0 0.0 0.00 0.00 0.00 95 1017.0
20260502105614 23 158 0.0 0.0 0.00 0.00 0.00 95 1017.0
20260502105111 24 158 0.0 0.0 0.00 0.00 0.00 95 1017.0
20260502104609 24 158 0.0 0.0 0.00 0.00 0.00 94 1017.0
20260502104106 24 158 0.0 0.0 0.00 0.00 0.00 94 1017.0
20260502103603 24 158 0.0 0.0 0.00 0.00 0.00 94 1017.0
20260502103102 24 158 0.0 0.0 0.00 0.00 0.00 94 1017.0
20260502102557 24 158 0.0 0.0 0.00 0.00 0.00 94 1017.4
20260502102055 24 159 0.0 0.0 0.00 0.00 0.00 93 1017.4
20260502101553 24 158 0.0 0.0 0.00 0.00 0.00 93 1017.4
20260502101051 24 158 0.0 0.0 0.00 0.00 0.00 93 1017.4
20260502100549 24 158 0.0 0.0 0.00 0.00 0.00 93 1017.0
20260502091524 25 163 0.0 0.0 0.00 0.00 0.00 94 1017.4
20260502091021 25 164 0.0 0.0 0.00 0.00 0.00 94 1017.4
20260502090517 25 164 0.0 0.0 0.00 0.00 0.00 93 1017.0
20260502071412 27 155 0.0 0.0 0.00 0.00 0.00 86 1017.7
20260502070910 28 158 0.0 0.0 0.00 0.00 0.00 86 1017.4
20260502070408 28 159 0.0 0.0 0.00 0.00 0.00 85 1017.7
20260502065906 28 150 0.0 0.0 0.00 0.00 0.00 85 1017.7
20260502065405 28 146 0.0 1.0 0.00 0.00 0.00 85 1017.7
20260502064902 28 136 1.0 1.0 0.00 0.00 0.00 85 1017.7
20260502064400 28 143 1.0 1.0 0.00 0.00 0.00 84 1017.7
20260502063856 28 146 0.0 0.0 0.00 0.00 0.00 84 1017.7
20260502063354 28 146 1.0 1.0 0.00 0.00 0.00 84 1018.0
20260502062851 28 139 1.0 1.0 0.00 0.00 0.00 84 1017.7
20260502062349 28 137 1.0 1.0 0.00 0.00 0.00 84 1018.0
20260502061848 28 143 0.0 1.0 0.00 0.00 0.00 83 1018.0
20260502061345 28 153 1.0 1.0 0.00 0.00 0.00 83 1018.0
20260502060841 28 152 1.0 1.0 0.00 0.00 0.00 83 1018.0
20260502060336 28 153 0.0 1.0 0.00 0.00 0.00 83 1018.0
20260502055834 28 154 1.0 1.0 0.00 0.00 0.00 83 1018.0
20260502055332 29 156 0.0 0.0 0.00 0.00 0.00 82 1017.7
20260502054831 29 146 0.0 1.0 0.00 0.00 0.00 82 1018.0
20260502054328 29 135 1.0 1.0 0.00 0.00 0.00 81 1018.0
20260502053826 30 143 1.0 1.0 0.00 0.00 0.00 79 1017.7
20260502053323 30 156 0.0 0.0 0.00 0.00 0.00 80 1018.0
20260502052820 30 156 0.0 1.0 0.00 0.00 0.00 80 1018.0
20260502052318 30 148 0.0 0.0 0.00 0.00 0.00 80 1018.0
20260502051815 31 142 0.0 1.0 0.00 0.00 0.00 80 1018.0
20260502051315 31 153 0.0 1.0 0.00 0.00 0.00 80 1018.0
20260502050810 31 155 1.0 1.0 0.00 0.00 0.00 80 1017.7
20260502050307 31 132 1.0 1.0 0.00 0.00 0.00 79 1017.7
20260502045804 31 150 0.0 1.0 0.00 0.00 0.00 79 1017.7
20260502045300 32 150 0.0 0.0 0.00 0.00 0.00 79 1017.7
20260502044758 32 143 1.0 1.0 0.00 0.00 0.00 79 1017.7
20260502044253 32 141 1.0 1.0 0.00 0.00 0.00 78 1017.7
20260502043751 32 142 1.0 1.0 0.00 0.00 0.00 78 1017.7
20260502043248 32 148 0.0 0.0 0.00 0.00 0.00 77 1017.7
20260502042748 33 137 1.0 1.0 0.00 0.00 0.00 76 1017.7
20260502042245 33 130 1.0 1.0 0.00 0.00 0.00 75 1017.7
20260502041743 33 153 0.0 0.0 0.00 0.00 0.00 75 1017.7
20260502041240 33 143 1.0 1.0 0.00 0.00 0.00 74 1017.7
20260502040737 33 135 1.0 1.0 0.00 0.00 0.00 73 1017.7
20260502040234 33 133 1.0 1.0 0.00 0.00 0.00 73 1017.4
20260502035729 34 151 0.0 1.0 0.00 0.00 0.00 73 1017.7
20260502035227 34 146 1.0 1.0 0.00 0.00 0.00 73 1018.0
20260502034724 34 156 0.0 0.0 0.00 0.00 0.00 74 1017.7
20260502034222 34 157 0.0 0.0 0.00 0.00 0.00 73 1017.7
20260502033720 35 157 0.0 0.0 0.00 0.00 0.00 73 1017.7
20260502033218 35 157 0.0 0.0 0.00 0.00 0.00 70 1017.7
20260502032714 35 156 0.0 0.0 0.00 0.00 0.00 70 1018.0
20260502032210 35 156 0.0 0.0 0.00 0.00 0.00 70 1017.7
20260502031708 36 156 0.0 0.0 0.00 0.00 0.00 69 1017.7
20260502031206 36 157 0.0 0.0 0.00 0.00 0.00 70 1017.7
20260502030704 36 156 0.0 0.0 0.00 0.00 0.00 68 1017.7
20260502030202 36 156 0.0 0.0 0.00 0.00 0.00 70 1017.7
20260502025658 36 155 0.0 0.0 0.00 0.00 0.00 68 1017.7
20260502025156 36 155 0.0 1.0 0.00 0.00 0.00 67 1017.7
20260502024654 37 157 0.0 0.0 0.00 0.00 0.00 68 1017.7
20260502024152 37 157 0.0 0.0 0.00 0.00 0.00 67 1017.7
20260502023650 37 150 0.0 0.0 0.00 0.00 0.00 66 1017.7
20260502023147 37 147 1.0 1.0 0.00 0.00 0.00 65 1017.7
20260502022644 37 146 1.0 1.0 0.00 0.00 0.00 64 1017.7
20260502022141 38 155 0.0 0.0 0.00 0.00 0.00 63 1017.7
20260502021638 38 152 0.0 0.0 0.00 0.00 0.00 62 1017.4
20260502021135 38 149 0.0 0.0 0.00 0.00 0.00 61 1017.7
20260502020633 39 152 0.0 0.0 0.00 0.00 0.00 61 1017.4
20260502020129 39 150 0.0 1.0 0.00 0.00 0.00 61 1017.4
20260502015627 39 164 0.0 0.0 0.00 0.00 0.00 67 1017.4
20260502015123 39 164 0.0 0.0 0.00 0.00 0.00 65 1017.0
20260502014621 40 164 0.0 0.0 0.00 0.00 0.00 61 1017.0
20260502014118 40 164 0.0 0.0 0.00 0.00 0.00 60 1017.4
20260502013614 41 164 0.0 0.0 0.00 0.00 0.00 61 1017.4
20260502013109 41 164 0.0 0.0 0.00 0.00 0.00 60 1017.0
20260502012607 42 164 0.0 0.0 0.00 0.00 0.00 58 1017.0
20260502012105 43 164 0.0 0.0 0.00 0.00 0.00 58 1017.0
20260502011601 44 164 0.0 0.0 0.00 0.00 0.00 53 1017.0
20260502011057 45 164 0.0 0.0 0.00 0.00 0.00 52 1017.0
20260502010555 45 164 0.0 0.0 0.00 0.00 0.00 49 1017.0
20260502010051 46 164 0.0 0.0 0.00 0.00 0.00 47 1017.0
20260502005549 47 163 0.0 0.0 0.00 0.00 0.00 45 1017.0
20260502005046 47 174 1.0 1.0 0.00 0.00 0.00 44 1017.0
20260502004542 48 166 0.0 0.0 0.00 0.00 0.00 45 1017.0
20260502004039 48 174 0.0 0.0 0.00 0.00 0.00 43 1017.0
20260502003537 49 358 2.0 3.0 0.00 0.00 0.00 43 1016.7
20260502003033 49 48 2.0 2.0 0.00 0.00 0.00 43 1016.7
20260502002530 49 81 0.0 2.0 0.00 0.00 0.00 42 1016.7
20260502002027 50 162 1.0 2.0 0.00 0.00 0.00 41 1016.7
20260502001525 50 178 0.0 0.0 0.00 0.00 0.00 42 1016.7
20260502001022 50 290 3.0 3.0 0.00 0.00 0.00 42 1016.7
20260502000520 50 355 2.0 2.0 0.00 0.00 0.00 43 1016.7
20260502000017 50 167 1.0 1.0 0.00 0.00 0.00 41 1016.7
20260501235513 50 161 0.0 0.0 0.00 0.00 0.00 39 1016.7
20260501235008 50 181 1.0 1.0 0.00 0.00 0.00 40 1016.7
20260501234504 51 166 1.0 2.0 0.00 0.00 0.00 40 1016.7
20260501234003 51 119 2.0 2.0 0.00 0.00 0.00 41 1016.7
20260501233501 51 77 1.0 2.0 0.00 0.00 0.00 40 1016.7
20260501232956 52 18 4.0 5.0 0.00 0.00 0.00 40 1016.7
20260501232453 53 171 1.0 1.0 0.00 0.00 0.00 39 1016.7
20260501231950 54 142 2.0 3.0 0.00 0.00 0.00 39 1016.7
20260501231449 53 199 1.0 2.0 0.00 0.00 0.00 39 1016.7
20260501230946 52 156 2.0 2.0 0.00 0.00 0.00 42 1016.7
20260501230445 51 159 0.0 0.0 0.00 0.00 0.00 41 1016.7
20260501225942 51 154 0.0 1.0 0.00 0.00 0.00 40 1016.7
20260501225440 51 205 1.0 1.0 0.00 0.00 0.00 41 1016.7
20260501224935 51 155 1.0 1.0 0.00 0.00 0.00 44 1016.7
20260501224433 52 131 2.0 2.0 0.00 0.00 0.00 40 1016.7
20260501223930 50 157 1.0 1.0 0.00 0.00 0.00 41 1017.0
20260501223426 50 154 0.0 1.0 0.00 0.00 0.00 42 1017.0
20260501222922 50 41 3.0 3.0 0.00 0.00 0.00 43 1016.7
20260501222420 50 78 4.0 6.0 0.00 0.00 0.00 41 1016.7
20260501221916 50 82 3.0 3.0 0.00 0.00 0.00 41 1016.7
20260501221413 51 12 3.0 3.0 0.00 0.00 0.00 42 1016.7
20260501220911 50 208 1.0 1.0 0.00 0.00 0.00 40 1017.0
20260501220408 51 310 6.0 9.0 0.00 0.00 0.00 41 1016.7
20260501215904 51 281 3.0 5.0 0.00 0.00 0.00 39 1016.7
20260501215401 52 178 2.0 2.0 0.00 0.00 0.00 41 1017.0
20260501214856 53 16 2.0 3.0 0.00 0.00 0.00 38 1016.7
20260501214351 53 302 2.0 3.0 0.00 0.00 0.00 39 1016.7
20260501213847 54 342 5.0 7.0 0.00 0.00 0.00 42 1016.7
20260501213344 51 179 1.0 1.0 0.00 0.00 0.00 45 1016.7
20260501212840 53 358 4.0 5.0 0.00 0.00 0.00 41 1016.7
20260501212337 52 239 3.0 3.0 0.00 0.00 0.00 42 1016.7
20260501211834 51 96 5.0 6.0 0.00 0.00 0.00 42 1016.7
20260501211332 50 14 4.0 5.0 0.00 0.00 0.00 42 1017.0
20260501210828 51 126 5.0 7.0 0.00 0.00 0.00 42 1016.7
20260501210326 52 145 1.0 2.0 0.00 0.00 0.00 42 1016.7
20260501205822 53 117 3.0 3.0 0.00 0.00 0.00 41 1016.7
20260501205319 53 169 3.0 3.0 0.00 0.00 0.00 40 1016.7
20260501204816 53 244 4.0 7.0 0.00 0.00 0.00 40 1017.0
20260501204312 53 179 1.0 1.0 0.00 0.00 0.00 43 1016.7
20260501203808 52 282 3.0 5.0 0.00 0.00 0.00 40 1016.7
20260501203306 52 90 5.0 7.0 0.00 0.00 0.00 41 1017.0
20260501202803 53 252 4.0 7.0 0.00 0.00 0.00 41 1017.0
20260501202300 51 162 2.0 3.0 0.00 0.00 0.00 44 1017.0
20260501201757 50 83 4.0 5.0 0.00 0.00 0.00 43 1017.0
20260501201253 51 202 1.0 2.0 0.00 0.00 0.00 47 1017.0
20260501200750 50 0 5.0 6.0 0.00 0.00 0.00 43 1017.0
20260501200247 51 63 6.0 7.0 0.00 0.00 0.00 45 1017.4
20260501195744 51 169 2.0 2.0 0.00 0.00 0.00 42 1017.4
20260501195240 53 193 2.0 5.0 0.00 0.00 0.00 44 1017.0
20260501194737 52 61 3.0 3.0 0.00 0.00 0.00 45 1017.0
20260501194233 49 146 1.0 1.0 0.00 0.00 0.00 47 1017.0
20260501193729 49 194 2.0 2.0 0.00 0.00 0.00 44 1017.4
20260501193228 49 339 2.0 5.0 0.00 0.00 0.00 44 1017.4
20260501192725 50 147 2.0 2.0 0.00 0.00 0.00 46 1017.0
20260501192221 51 144 3.0 5.0 0.00 0.00 0.00 45 1017.4
20260501191719 50 162 3.0 3.0 0.00 0.00 0.00 44 1017.0
20260501191216 50 275 2.0 2.0 0.00 0.00 0.00 44 1017.0
20260501190712 50 114 5.0 7.0 0.00 0.00 0.00 43 1017.4
20260501190208 48 41 5.0 6.0 0.00 0.00 0.00 45 1017.4
20260501185704 51 339 4.0 6.0 0.00 0.00 0.00 45 1017.4
20260501185200 50 351 8.0 10.0 0.00 0.00 0.00 44 1017.4
20260501184656 51 343 5.0 6.0 0.00 0.00 0.00 45 1017.4
20260501184156 50 251 2.0 3.0 0.00 0.00 0.00 45 1017.4
20260501183653 49 341 4.0 6.0 0.00 0.00 0.00 47 1017.4
20260501183150 49 10 3.0 3.0 0.00 0.00 0.00 45 1017.0
20260501182646 50 355 1.0 5.0 0.00 0.00 0.00 50 1017.4
20260501182143 51 292 4.0 5.0 0.00 0.00 0.00 48 1017.0
20260501181640 50 134 1.0 1.0 0.00 0.00 0.00 49 1017.4
20260501181137 48 347 5.0 9.0 0.00 0.00 0.00 48 1017.4